[[{"header":{"parameterUnit":"m.s-1","parameterCategory":1,"la1":30.2991,"la2":30.254,"lo1":-89.0895,"lo2":-89.0444,"dy":0.0017,"dx":0.0017,"nx":28,"ny":28,"refTime":"2024-02-16T03:00:00:Z","depth":0,"parameterNumber":2,"parameterNumberName":"U-component_of_WINDS"},"data":[0,0,0,0,0,0,0,0,0,0,0,0,0,0,0,0,0,0,0,0,0,0,0,0,0,0,0,0,0,0,0,0,0,0,0,0,0,0,0,0,0,0,0,0,0,0,0,0,0,0,0,0,0,0,0,0,0,0,-1.5375,-1.5376,0,-1.546,-1.5461,-1.5462,-1.5451,-1.5449,-1.5448,-1.5446,-1.5529,-1.5532,-1.5536,0,0,0,0,0,0,0,0,0,0,0,0,0,-1.52,-1.5203,-1.5375,-1.5376,-1.5377,-1.546,-1.5461,-1.5462,-1.5451,-1.5449,-1.5447,-1.5446,-1.5528,-1.5532,-1.5536,0,0,0,0,0,0,0,0,0,0,0,0,0,-1.5279,-1.5204,-1.5375,-1.5382,-1.5383,-1.5459,-1.5461,-1.5462,-1.5451,-1.5449,-1.5447,-1.5445,-1.5527,-1.5532,-1.5537,-1.561,0,0,-1.5553,-1.5555,0,0,0,0,0,0,0,0,-1.5275,-1.5285,-1.538,-1.5382,-1.5383,-1.5443,-1.5429,-1.5512,-1.5452,-1.5425,-1.5446,-1.5444,-1.5502,-1.5509,-1.5529,-1.5614,-1.5618,-1.5553,-1.5556,-1.5559,-1.556,0,0,0,0,0,0,0,-1.5269,-1.5282,-1.5409,-1.5381,-1.5383,-1.5379,-1.5388,-1.5445,-1.5474,-1.5427,-1.5427,-1.5437,-1.5502,-1.5524,-1.5531,-1.5619,-1.5553,-1.5558,-1.5561,-1.5563,-1.5767,-1.5769,0,0,0,0,0,0,-1.5262,-1.5277,-1.5406,-1.5411,-1.5323,-1.5384,-1.5394,-1.5426,-1.5473,-1.5479,-1.5439,-1.5436,-1.5516,-1.5525,-1.5534,-1.5623,-1.5559,-1.5563,-1.5566,-1.5764,-1.5767,-1.577,0,0,0,0,0,0,-1.5259,-1.5274,-1.5402,-1.5344,-1.536,-1.5389,-1.5425,-1.5428,-1.545,-1.5482,-1.5487,-1.5456,-1.5515,-1.5526,-1.5591,-1.5626,-1.5566,-1.5571,-1.5762,-1.5765,-1.5768,-1.5802,0,0,0,0,0,0,-1.5254,-1.5273,-1.5302,-1.5345,-1.5363,-1.546,-1.5427,-1.5431,-1.546,-1.5457,-1.55,-1.5504,-1.5514,-1.5584,-1.5596,-1.5632,-1.5575,-1.5759,-1.5763,-1.5767,-1.5798,-1.5806,-1.5813,0,0,0,0,0,-1.5247,-1.5308,-1.5304,-1.532,-1.5401,-1.5463,-1.5473,-1.5484,-1.5463,-1.5492,-1.5512,-1.5503,-1.5619,-1.559,-1.5605,-1.5642,-1.5757,-1.5762,-1.5767,-1.5794,-1.5804,-1.5813,0,0,0,0,0,0,-1.5268,-1.5314,-1.531,-1.5386,-1.5421,-1.5461,-1.5498,-1.5494,-1.5535,-1.553,-1.5541,-1.555,-1.5616,-1.5635,-1.5602,-1.5715,-1.5685,-1.5693,-1.5701,-1.571,-1.5718,-1.5712,-1.5579,0,0,0,0,0,-1.5281,-1.5329,-1.5365,-1.5429,-1.5447,-1.5469,-1.5496,-1.5502,-1.5537,-1.5552,-1.5576,-1.561,-1.5654,-1.5683,-1.5725,-1.5799,-1.5808,-1.5832,-1.5839,-1.5845,-1.5853,-1.5893,-1.5904,-1.5787,-1.5786,-1.5786,0,0,-1.531,-1.534,-1.537,-1.5434,-1.5461,-1.5509,-1.5482,-1.5533,-1.5568,-1.5559,-1.5623,-1.5641,-1.5679,-1.5749,-1.5781,-1.5767,-1.5887,-1.5852,-1.5856,-1.5861,-1.5899,-1.591,-1.592,-1.579,-1.5789,-1.5789,0,0,-1.5386,-1.5414,-1.547,-1.5498,-1.554,-1.5554,-1.5567,-1.5607,-1.562,-1.5684,-1.5678,-1.5718,-1.5794,-1.5821,-1.5845,-1.5928,-1.5922,-1.5941,-1.5981,-1.602,-1.6029,-1.6038,-1.6068,-1.6078,-1.5948,-1.5948,-1.5948,0,-1.5416,-1.5489,-1.5499,-1.5551,-1.5579,-1.5573,-1.5629,-1.5655,-1.5708,-1.5726,-1.571,-1.5804,-1.5829,-1.5905,-1.5925,-1.5944,-1.5959,-1.5938,-1.6028,-1.6036,-1.6044,-1.6072,-1.6084,-1.5951,-1.595,-1.595,-1.595,0,-1.5523,-1.5573,-1.5613,-1.5666,-1.5698,-1.5751,-1.5768,-1.5799,-1.58,-1.5816,-1.5879,-1.5909,-1.5957,-1.5974,-1.5976,-1.605,-1.604,-1.6025,-1.5996,-1.6057,-1.6084,-1.6095,-1.5954,-1.5953,-1.5952,-1.5952,0,0,-1.5617,-1.5674,-1.5688,-1.5712,-1.5756,-1.5794,-1.5846,-1.5894,-1.592,-1.5955,-1.5999,-1.6062,-1.6048,-1.6075,-1.6079,-1.6113,-1.6177,-1.6094,-1.6095,-1.6109,-1.626,-1.6272,-1.6285,-1.6172,-1.6174,-1.6176,-1.6257,0,-1.5699,-1.5794,-1.5803,-1.5887,-1.5933,-1.5926,-1.5971,-1.6003,-1.6017,-1.6057,-1.6072,-1.6117,-1.6096,-1.6112,-1.6145,-1.6163,-1.6208,-1.6157,-1.6212,-1.6214,-1.6205,-1.6299,-1.6312,-1.6388,-1.6268,-1.6269,-1.6271,0,-1.5807,-1.5847,-1.5936,-1.5973,-1.5993,-1.6034,-1.6077,-1.6115,-1.6149,-1.6158,-1.6187,-1.6186,-1.6237,-1.6204,-1.6275,-1.624,-1.6262,-1.6274,-1.6277,-1.6284,-1.6248,-1.6309,-1.6412,-1.6424,-1.6288,-1.6286,-1.6285,0,-1.5868,-1.5943,-1.6007,-1.6026,-1.6071,-1.61,-1.6119,-1.6151,-1.6179,-1.6216,-1.6233,-1.6275,-1.6299,-1.633,-1.634,-1.6315,-1.641,-1.6378,-1.6418,-1.6418,-1.644,-1.6439,-1.6549,-1.6452,-1.6452,-1.6452,-1.6452,0,-1.5959,-1.6014,-1.6035,-1.6073,-1.6134,-1.6143,-1.6201,-1.6219,-1.6247,-1.6288,-1.6283,-1.6321,-1.6331,-1.637,-1.6377,-1.6435,-1.6445,-1.6452,-1.6454,-1.6454,-1.6453,-1.647,-1.6466,-1.6455,-1.6454,-1.6454,-1.6453,0,-1.6039,-1.6055,-1.6123,-1.6159,-1.6169,-1.6212,-1.6242,-1.6278,-1.6291,-1.6343,-1.6355,-1.6376,-1.6421,-1.6433,-1.6488,-1.6492,-1.656,-1.6556,-1.6549,-1.655,-1.6589,-1.6586,-1.6716,-1.6733,-1.6624,-1.6625,-1.6625,0,-1.6097,-1.6139,-1.6179,-1.6207,-1.6228,-1.6272,-1.63,-1.6309,-1.6338,-1.6379,-1.641,-1.6455,-1.6492,-1.6565,-1.6583,-1.6624,-1.6622,-1.6664,-1.6628,-1.6626,-1.6623,-1.6621,-1.6625,-1.6672,-1.6673,-1.6674,-1.6675,0,-1.6198,-1.6203,-1.6245,-1.6289,-1.6323,-1.6357,-1.639,-1.6412,-1.6426,-1.6458,-1.6505,-1.6534,-1.6589,-1.6633,-1.6674,-1.6692,-1.6686,-1.6685,-1.6697,-1.6698,-1.6693,-1.6697,-1.657,-1.6683,-1.6682,-1.6682,-1.6681,-1.6681,-1.6269,-1.6306,-1.6341,-1.6386,-1.6412,-1.6443,-1.6478,-1.6496,-1.6536,-1.6583,-1.6584,-1.6635,-1.6666,-1.672,-1.674,-1.6779,-1.6766,-1.6783,-1.6787,-1.6791,-1.6795,-1.6685,-1.6786,-1.6786,-1.6785,-1.6785,-1.6785,0,-1.6371,-1.6393,-1.6435,-1.6481,-1.6517,-1.6507,-1.6543,-1.6573,-1.6618,-1.6648,-1.6684,-1.6737,-1.6779,-1.68,-1.6842,-1.6869,-1.6867,-1.6879,-1.6878,-1.6882,-1.6804,-1.679,-1.688,-1.688,-1.688,-1.688,-1.688,-1.688,-1.6429,-1.6491,-1.65,-1.6573,-1.6593,-1.6645,-1.6665,-1.6693,-1.6716,-1.6777,-1.6812,-1.6826,-1.6851,-1.6894,-1.6932,-1.6937,-1.6953,-1.6968,-1.6971,-1.6898,-1.6888,-1.6879,-1.6866,-1.6971,-1.6971,-1.7046,-1.7047,-1.7047]},{"header":{"parameterUnit":"m.s-1","parameterCategory":1,"la1":30.2991,"la2":30.254,"lo1":-89.0895,"lo2":-89.0444,"dy":0.0017,"dx":0.0017,"nx":28,"ny":28,"refTime":"2024-02-16T03:00:00:Z","depth":0,"parameterNumber":3,"parameterNumberName":"V-component_of_WINDS"},"data":[0,0,0,0,0,0,0,0,0,0,0,0,0,0,0,0,0,0,0,0,0,0,0,0,0,0,0,0,0,0,0,0,0,0,0,0,0,0,0,0,0,0,0,0,0,0,0,0,0,0,0,0,0,0,0,0,0,0,-8.1208,-8.121,0,-8.1364,-8.1366,-8.1368,-8.1303,-8.1299,-8.1295,-8.1292,-8.1444,-8.1451,-8.1459,0,0,0,0,0,0,0,0,0,0,0,0,0,-8.0847,-8.0854,-8.1208,-8.121,-8.1212,-8.1364,-8.1366,-8.1368,-8.1303,-8.1299,-8.1294,-8.129,-8.1442,-8.145,-8.146,0,0,0,0,0,0,0,0,0,0,0,0,0,-8.1003,-8.0856,-8.1208,-8.1198,-8.1199,-8.1364,-8.1366,-8.1369,-8.1304,-8.1299,-8.1293,-8.1288,-8.1439,-8.145,-8.1461,-8.1642,0,0,-8.1495,-8.15,0,0,0,0,0,0,0,0,-8.0995,-8.1017,-8.1198,-8.1199,-8.12,-8.1309,-8.1295,-8.146,-8.1306,-8.1264,-8.1292,-8.1285,-8.1403,-8.1417,-8.1458,-8.1649,-8.1656,-8.1496,-8.1503,-8.1508,-8.1511,0,0,0,0,0,0,0,-8.0984,-8.1009,-8.127,-8.12,-8.1202,-8.1184,-8.12,-8.1326,-8.1363,-8.1267,-8.1263,-8.1283,-8.1403,-8.1447,-8.1461,-8.1658,-8.1496,-8.1506,-8.1513,-8.1517,-8.2005,-8.2011,0,0,0,0,0,0,-8.0974,-8.1001,-8.1265,-8.1274,-8.1082,-8.1195,-8.1213,-8.1279,-8.1361,-8.1368,-8.1287,-8.1279,-8.1431,-8.1448,-8.1466,-8.1685,-8.1508,-8.1518,-8.1525,-8.1999,-8.2007,-8.2013,0,0,0,0,0,0,-8.0966,-8.0998,-8.1258,-8.1137,-8.1169,-8.1207,-8.1282,-8.1285,-8.133,-8.1376,-8.1382,-8.1327,-8.1427,-8.145,-8.1599,-8.1689,-8.1523,-8.1534,-8.1992,-8.2001,-8.201,-8.2123,0,0,0,0,0,0,-8.0956,-8.0996,-8.1067,-8.1139,-8.1175,-8.1392,-8.1288,-8.1292,-8.1351,-8.1342,-8.1415,-8.1422,-8.1425,-8.1583,-8.1611,-8.1702,-8.1543,-8.1984,-8.1996,-8.2007,-8.2111,-8.2135,-8.2155,0,0,0,0,0,-8.0944,-8.109,-8.1071,-8.1103,-8.1265,-8.1397,-8.1417,-8.142,-8.1358,-8.1429,-8.1459,-8.1419,-8.1675,-8.1599,-8.1629,-8.1725,-8.1978,-8.1993,-8.2006,-8.2101,-8.213,-8.2154,0,0,0,0,0,0,-8.1024,-8.1099,-8.1078,-8.1253,-8.132,-8.1386,-8.1475,-8.145,-8.1533,-8.1521,-8.1518,-8.1535,-8.1689,-8.1721,-8.1636,-8.1905,-8.1817,-8.1837,-8.1878,-8.1906,-8.1928,-8.1917,-8.1552,0,0,0,0,0,-8.1063,-8.1166,-8.1225,-8.1373,-8.1408,-8.1436,-8.1493,-8.149,-8.1557,-8.1584,-8.1625,-8.169,-8.1784,-8.1847,-8.1936,-8.2115,-8.213,-8.2196,-8.2217,-8.2235,-8.2253,-8.235,-8.2381,-8.2059,-8.2059,-8.2059,0,0,-8.1143,-8.1197,-8.1262,-8.1391,-8.1442,-8.1547,-8.146,-8.1574,-8.1652,-8.1601,-8.1745,-8.1777,-8.1849,-8.2014,-8.2088,-8.2046,-8.2345,-8.2253,-8.2267,-8.2275,-8.2368,-8.2398,-8.2425,-8.2069,-8.2067,-8.2065,0,0,-8.1343,-8.1394,-8.1525,-8.1578,-8.1657,-8.1675,-8.1706,-8.1777,-8.1797,-8.1942,-8.1907,-8.1997,-8.216,-8.2213,-8.2262,-8.2483,-8.245,-8.2511,-8.2626,-8.2721,-8.2746,-8.2769,-8.2848,-8.2877,-8.2529,-8.253,-8.253,0,-8.1432,-8.1592,-8.1594,-8.1713,-8.177,-8.1731,-8.1862,-8.1913,-8.2016,-8.2056,-8.2007,-8.2212,-8.2257,-8.2435,-8.2489,-8.2529,-8.2564,-8.2504,-8.2743,-8.2765,-8.2786,-8.2862,-8.2892,-8.2537,-8.2536,-8.2535,-8.2534,0,-8.1698,-8.1809,-8.1904,-8.2008,-8.2076,-8.22,-8.2219,-8.2287,-8.2278,-8.23,-8.2448,-8.2501,-8.2602,-8.2643,-8.2633,-8.282,-8.2791,-8.2742,-8.2654,-8.2824,-8.2895,-8.2924,-8.2547,-8.2544,-8.2542,-8.254,0,0,-8.1954,-8.2059,-8.2094,-8.2141,-8.2226,-8.2311,-8.2432,-8.2533,-8.2592,-8.2664,-8.2765,-8.2904,-8.2861,-8.2916,-8.2912,-8.2995,-8.3168,-8.2936,-8.2938,-8.2978,-8.3376,-8.3413,-8.3447,-8.3146,-8.3151,-8.3156,-8.337,0,-8.2161,-8.2378,-8.2383,-8.2581,-8.2683,-8.2648,-8.2753,-8.2816,-8.284,-8.2928,-8.2952,-8.3052,-8.2987,-8.302,-8.3101,-8.313,-8.3248,-8.3114,-8.3239,-8.3243,-8.3224,-8.3484,-8.3523,-8.3723,-8.3398,-8.3403,-8.3406,0,-8.2433,-8.2517,-8.2726,-8.2797,-8.284,-8.2936,-8.3029,-8.3114,-8.3183,-8.3195,-8.3257,-8.3241,-8.3363,-8.327,-8.3437,-8.3347,-8.3397,-8.3419,-8.3427,-8.3439,-8.3336,-8.3504,-8.3786,-8.3817,-8.345,-8.3446,-8.3443,0,-8.26,-8.2765,-8.2912,-8.2953,-8.304,-8.3108,-8.3146,-8.321,-8.3271,-8.3351,-8.339,-8.3482,-8.3533,-8.3604,-8.3612,-8.3544,-8.3781,-8.3688,-8.3793,-8.3793,-8.3845,-8.3842,-8.4141,-8.3876,-8.3876,-8.3875,-8.3874,0,-8.2832,-8.2961,-8.2989,-8.3079,-8.3223,-8.3226,-8.3367,-8.34,-8.3457,-8.3552,-8.3525,-8.3613,-8.3618,-8.3709,-8.3715,-8.3853,-8.3875,-8.3887,-8.3888,-8.3891,-8.3889,-8.3925,-8.3911,-8.3883,-8.3881,-8.388,-8.3878,0,-8.3044,-8.3067,-8.3225,-8.3295,-8.3315,-8.3418,-8.3476,-8.3561,-8.3583,-8.3703,-8.3731,-8.3763,-8.3869,-8.3884,-8.4005,-8.401,-8.4176,-8.4161,-8.4154,-8.4152,-8.4256,-8.4246,-8.4589,-8.4634,-8.4339,-8.4342,-8.4344,0,-8.3191,-8.329,-8.3371,-8.3434,-8.3478,-8.3578,-8.3641,-8.3648,-8.3713,-8.38,-8.3875,-8.3978,-8.4061,-8.4229,-8.4263,-8.4356,-8.4343,-8.4457,-8.4357,-8.4357,-8.4346,-8.4341,-8.4351,-8.4476,-8.448,-8.4482,-8.4484,0,-8.345,-8.3457,-8.355,-8.3648,-8.3724,-8.38,-8.3872,-8.3924,-8.3939,-8.4014,-8.4123,-8.4188,-8.4314,-8.4416,-8.4508,-8.4544,-8.4518,-8.4516,-8.4545,-8.4549,-8.4542,-8.4548,-8.4208,-8.4508,-8.4505,-8.4504,-8.4502,-8.4502,-8.3635,-8.3722,-8.3793,-8.3897,-8.3953,-8.4021,-8.4105,-8.4138,-8.423,-8.4335,-8.4332,-8.4452,-8.4517,-8.4639,-8.4683,-8.4774,-8.4737,-8.4779,-8.479,-8.48,-8.4811,-8.4527,-8.4791,-8.479,-8.4789,-8.4789,-8.4788,0,-8.3893,-8.3938,-8.4034,-8.4137,-8.4219,-8.4189,-8.4266,-8.4336,-8.4443,-8.4508,-8.4591,-8.4715,-8.4814,-8.4856,-8.4952,-8.5018,-8.5008,-8.5043,-8.5039,-8.5048,-8.4839,-8.4805,-8.505,-8.505,-8.505,-8.505,-8.505,-8.505,-8.4038,-8.4184,-8.42,-8.4372,-8.4415,-8.4535,-8.4582,-8.4644,-8.4696,-8.4838,-8.4921,-8.4948,-8.5004,-8.5104,-8.5193,-8.5202,-8.5239,-8.5281,-8.5285,-8.5089,-8.5062,-8.5037,-8.5005,-8.5289,-8.5289,-8.5486,-8.5488,-8.5489]}]]